Time+13,TemperatureF,Dew PointF,Humidity,Sea Level PressureIn,VisibilityMPH,Wind Direction,Wind SpeedMPH,Gust SpeedMPH,PrecipitationIn,Events,Conditions,WindDirDegrees,DateUTC
12:00 AM,75.2,75.2,100,29.80,12.4,Calm,Calm,-,N/A,,Overcast,0,1999-01-01 11:00:00
1:00 AM,75.2,75.2,100,29.80,18.6,Calm,Calm,-,N/A,,Overcast,0,1999-01-01 12:00:00
2:00 AM,75.2,73.4,94,29.77,24.9,Calm,Calm,-,N/A,,Overcast,0,1999-01-01 13:00:00
3:00 AM,75.2,73.4,94,29.77,24.9,SW,2.3,-,N/A,,Overcast,220,1999-01-01 14:00:00
4:00 AM,75.2,73.4,94,29.74,24.9,SW,2.3,-,N/A,,Overcast,220,1999-01-01 15:00:00
5:00 AM,75.2,73.4,94,29.74,24.9,Calm,Calm,-,N/A,,Mostly Cloudy,0,1999-01-01 16:00:00
6:00 AM,75.2,73.4,94,29.74,28.0,Calm,Calm,-,N/A,,Mostly Cloudy,0,1999-01-01 17:00:00
7:00 AM,75.2,73.4,94,29.77,31.1,Calm,Calm,-,N/A,,Mostly Cloudy,0,1999-01-01 18:00:00
8:00 AM,77.0,75.2,94,29.80,31.1,Calm,Calm,-,N/A,,Mostly Cloudy,0,1999-01-01 19:00:00
9:00 AM,78.8,75.2,89,29.80,31.1,Calm,Calm,-,N/A,,Mostly Cloudy,0,1999-01-01 20:00:00
10:00 AM,80.6,77.0,89,29.80,31.1,Calm,Calm,-,N/A,,Mostly Cloudy,0,1999-01-01 21:00:00
11:00 AM,82.4,77.0,84,29.83,31.1,Calm,Calm,-,N/A,,Mostly Cloudy,0,1999-01-01 22:00:00
12:00 PM,82.4,77.0,84,29.83,28.0,West,11.5,-,N/A,,Mostly Cloudy,260,1999-01-01 23:00:00
1:00 PM,82.4,77.0,84,29.83,31.1,NNW,2.3,-,N/A,,Mostly Cloudy,330,1999-01-02 00:00:00
2:00 PM,80.6,77.0,89,29.80,31.1,NNW,2.3,-,N/A,,Overcast,330,1999-01-02 01:00:00
3:00 PM,82.4,77.0,84,29.80,31.1,NNW,2.3,-,N/A,,Overcast,330,1999-01-02 02:00:00
4:00 PM,84.2,77.0,79,29.77,31.1,Calm,Calm,-,N/A,,Mostly Cloudy,0,1999-01-02 03:00:00
5:00 PM,84.2,75.2,74,29.77,31.1,South,6.9,-,N/A,,Mostly Cloudy,180,1999-01-02 04:00:00
6:00 PM,82.4,75.2,79,29.77,31.1,South,4.6,-,N/A,,Mostly Cloudy,170,1999-01-02 05:00:00
7:00 PM,82.4,75.2,79,29.77,31.1,SSE,4.6,-,N/A,,Mostly Cloudy,150,1999-01-02 06:00:00
8:00 PM,80.6,75.2,84,29.80,24.9,Calm,Calm,-,N/A,,Mostly Cloudy,0,1999-01-02 07:00:00
9:00 PM,80.6,75.2,84,29.83,24.9,Calm,Calm,-,N/A,,Mostly Cloudy,0,1999-01-02 08:00:00
10:00 PM,77.0,75.2,94,29.83,24.9,Calm,Calm,-,N/A,Rain,Light Rain Showers,0,1999-01-02 09:00:00
11:00 PM,77.0,75.2,94,29.86,24.9,Calm,Calm,-,N/A,,Mostly Cloudy,0,1999-01-02 10:00:00